Houghton Lake, MI

2:22 PM EDT on March 29, 2017 (GMT -0400)
Roscommon County

Weather History for KHTL - March, 2013

Change the Weather History Date:

Wednesday, March 20, 2013

  Actual Average Record
Temperature  
Mean Temperature 17 °F 30 °F  
Max Temperature 23 °F 41 °F 81 °F (2012)
Min Temperature 11 °F 20 °F -20 °F (1923)
Degree Days  
Heating Degree Days 48 34  
Month to date heating degree days 796 764  
Since 1 July heating degree days 6170 6636  
Cooling Degree Days 0 0  
Month to date cooling degree days 0 0  
Year to date cooling degree days 0 0  
Moisture  
Dew Point 13 °F    
Average Humidity 74    
Maximum Humidity 92    
Minimum Humidity 56    
Precipitation  
Precipitation 0.08 in 0.06 in 0.56 in (1933)
Month to date precipitation 1.21 1.11  
Year to date precipitation 6.47 3.83  
Snow  
Snow 1.20 in 0.20 in 6.00 in (1970)
Month to date snowfall 5.7 5.9  
Since 1 July snowfall 57.0 60.4  
Snow Depth 11.00 in    
Sea Level Pressure  
Sea Level Pressure 29.84 in    
Wind  
Wind Speed 10 mph (West)    
Max Wind Speed 17 mph    
Max Gust Speed 24 mph    
Visibility 5 miles    
Events Snow    
T = Trace of Precipitation, MM = Missing Value Source: NWS Daily Summary

Daily Weather History Graph

Daily Weather History Graph

Search for Another Location

Airport or City:

Trip Planner

Search our weather history database for the weather conditions in past years. The results will help you decide how hot, cold, wet, or windy it might be!

Date:

Astronomy

Mar. 20, 2013 Rise Set
Actual Time 7:41 AM EDT 7:51 PM EDT
Civil Twilight 7:12 AM EDT 8:20 PM EDT
Nautical Twilight 6:38 AM EDT 8:54 PM EDT
Astronomical Twilight 6:03 AM EDT 9:29 PM EDT
Moon 1:13 PM EDT (3/20) 3:32 AM EDT (3/20)
Length of Visible Light 13h 07m
Length of Day
12h 10m
First Quarter, 59% of the Moon is Illuminated
Mar 20
First Quarter
Mar 27
Full
Apr 3
Last Quarter
Apr 10
New
Apr 18
First Quarter

Hourly Weather History & Observations

Time (EDT) Temp. Windchill Dew Point Humidity Pressure Visibility Wind Dir Wind Speed Gust Speed Precip Events Conditions
12:02 AM 23.0 °F 13.9 °F 19.4 °F 86% 29.81 in 1.5 mi WNW 8.1 mph - 0.01 in Snow Light Snow
12:33 AM 23.0 °F 13.1 °F 19.4 °F 86% 29.81 in 1.2 mi West 9.2 mph - 0.02 in Snow Light Snow
12:45 AM 23.0 °F 14.7 °F 19.4 °F 86% 29.80 in 1.0 mi West 6.9 mph - 0.02 in Snow Light Snow
12:53 AM 23.0 °F 14.7 °F 19.9 °F 88% 29.86 in 0.8 mi West 6.9 mph - 0.03 in Snow Light Snow
1:05 AM 23.0 °F 13.1 °F 19.4 °F 86% 29.80 in 1.0 mi West 9.2 mph - 0.00 in Snow Light Snow
1:12 AM 23.0 °F 13.9 °F 19.4 °F 86% 29.80 in 1.2 mi West 8.1 mph - 0.01 in Snow Light Snow
1:19 AM 23.0 °F 13.1 °F 19.4 °F 86% 29.79 in 2.0 mi West 9.2 mph - 0.01 in Snow Light Snow
1:53 AM 21.9 °F 11.0 °F 19.0 °F 89% 29.85 in 3.0 mi WSW 10.4 mph - 0.01 in Snow Light Snow
2:02 AM 21.2 °F 9.5 °F 19.4 °F 93% 29.80 in 1.8 mi West 11.5 mph - 0.00 in Snow Light Snow
2:10 AM 23.0 °F 13.1 °F 19.4 °F 86% 29.79 in 1.2 mi West 9.2 mph - 0.00 in Snow Light Snow
2:38 AM 21.2 °F 9.5 °F 17.6 °F 86% 29.80 in 2.0 mi WNW 11.5 mph - 0.00 in Snow Light Snow
2:53 AM 21.9 °F 9.8 °F 18.0 °F 85% 29.86 in 1.2 mi West 12.7 mph - 0.00 in Snow Light Snow
3:04 AM 21.2 °F 10.9 °F 17.6 °F 86% 29.80 in 3.0 mi West 9.2 mph - 0.01 in Snow Light Snow
3:18 AM 21.2 °F 10.1 °F 17.6 °F 86% 29.80 in 2.0 mi WNW 10.4 mph - 0.01 in Snow Light Snow
3:35 AM 21.2 °F 12.6 °F 17.6 °F 86% 29.80 in 7.0 mi West 6.9 mph - 0.01 in Snow Light Snow
3:53 AM 19.9 °F 10.1 °F 16.0 °F 85% 29.86 in 9.0 mi West 8.1 mph - 0.01 in   Overcast
4:53 AM 19.0 °F 9.0 °F 14.0 °F 81% 29.85 in 10.0 mi West 8.1 mph - N/A   Overcast
5:53 AM 15.1 °F 4.2 °F 10.9 °F 84% 29.86 in 10.0 mi West 8.1 mph - N/A   Partly Cloudy
6:53 AM 10.9 °F 2.9 °F 8.1 °F 88% 29.86 in 10.0 mi WSW 4.6 mph - N/A   Clear
7:53 AM 10.9 °F 2.9 °F 8.1 °F 88% 29.88 in 10.0 mi West 4.6 mph - N/A   Clear
8:53 AM 12.9 °F 3.8 °F 8.1 °F 81% 29.88 in 10.0 mi West 5.8 mph - N/A   Clear
9:53 AM 18.0 °F 6.9 °F 12.0 °F 78% 29.87 in 10.0 mi West 9.2 mph - N/A   Clear
10:43 AM 19.4 °F 7.9 °F 12.2 °F 74% 29.81 in 10.0 mi West 10.4 mph - N/A   Mostly Cloudy
10:53 AM 21.0 °F 7.1 °F 12.0 °F 68% 29.87 in 10.0 mi West 16.1 mph 20.7 mph N/A   Mostly Cloudy
11:30 AM 19.4 °F 7.9 °F 10.4 °F 68% 29.81 in 7.0 mi West 10.4 mph - 0.00 in Snow Light Snow
11:41 AM 21.2 °F 8.9 °F 10.4 °F 63% 29.81 in 9.0 mi West 12.7 mph 18.4 mph 0.00 in   Overcast
11:48 AM 21.2 °F 8.3 °F 8.6 °F 58% 29.82 in 10.0 mi West 13.8 mph 18.4 mph 0.00 in   Overcast
11:53 AM 21.0 °F 8.6 °F 10.0 °F 63% 29.87 in 10.0 mi West 12.7 mph - 0.00 in   Overcast
12:19 PM 19.4 °F 5.5 °F 10.4 °F 68% 29.82 in 4.0 mi West 15.0 mph 21.9 mph 0.00 in Snow Light Snow
12:53 PM 21.0 °F 7.1 °F 10.9 °F 65% 29.88 in 5.0 mi West 16.1 mph 21.9 mph 0.00 in Snow Light Snow
12:58 PM 19.4 °F 6.0 °F 12.2 °F 74% 29.82 in 1.8 mi West 13.8 mph 21.9 mph 0.00 in Snow Light Snow
1:02 PM 19.4 °F 6.6 °F 12.2 °F 74% 29.82 in 1.0 mi West 12.7 mph - 0.00 in Snow Light Snow
1:09 PM 21.2 °F 9.5 °F 14.0 °F 74% 29.82 in 1.8 mi West 11.5 mph - 0.00 in Snow Light Snow
1:12 PM 21.2 °F 8.9 °F 14.0 °F 74% 29.82 in 4.0 mi West 12.7 mph - 0.00 in Snow Light Snow
1:19 PM 23.0 °F 11.1 °F 12.2 °F 63% 29.82 in 9.0 mi West 12.7 mph - 0.00 in   Overcast
1:38 PM 21.2 °F 8.3 °F 12.2 °F 68% 29.82 in 1.8 mi West 13.8 mph 24.2 mph 0.00 in Snow Light Snow
1:41 PM 21.2 °F 8.9 °F 14.0 °F 74% 29.82 in 1.0 mi West 12.7 mph 24.2 mph 0.00 in Snow Light Snow
1:48 PM 21.2 °F 7.8 °F 15.8 °F 80% 29.82 in 0.8 mi WNW 15.0 mph - 0.00 in Snow Light Snow
1:51 PM 21.2 °F 8.9 °F 14.0 °F 74% 29.82 in 1.2 mi West 12.7 mph - 0.00 in Snow Light Snow
1:53 PM 21.9 °F 10.4 °F 14.0 °F 72% 29.88 in 2.0 mi WNW 11.5 mph - 0.00 in Snow Light Snow
2:01 PM 21.2 °F 9.5 °F 14.0 °F 74% 29.82 in 7.0 mi West 11.5 mph - 0.00 in   Overcast
2:06 PM 21.2 °F 8.9 °F 14.0 °F 74% 29.82 in 1.8 mi West 12.7 mph - 0.00 in Snow Light Snow
2:13 PM 21.2 °F 11.7 °F 15.8 °F 80% 29.82 in 1.2 mi West 8.1 mph - 0.00 in Snow Light Snow
2:17 PM 21.2 °F 10.9 °F 15.8 °F 80% 29.82 in 3.0 mi West 9.2 mph - 0.00 in Snow Light Snow
2:24 PM 21.2 °F 7.8 °F 12.2 °F 68% 29.82 in 9.0 mi West 15.0 mph 19.6 mph 0.00 in   Overcast
2:53 PM 21.0 °F 9.3 °F 10.9 °F 65% 29.88 in 2.5 mi West 11.5 mph - 0.00 in Snow Light Snow
3:04 PM 21.2 °F 9.5 °F 14.0 °F 74% 29.82 in 1.8 mi WNW 11.5 mph - 0.00 in Snow Light Snow
3:06 PM 21.2 °F 7.8 °F 12.2 °F 68% 29.82 in 1.5 mi WNW 15.0 mph 19.6 mph 0.00 in Snow Light Snow
3:13 PM 19.4 °F 9.5 °F 12.2 °F 74% 29.81 in 2.0 mi WNW 8.1 mph 19.6 mph 0.00 in Snow Light Snow
3:16 PM 21.2 °F 11.7 °F 10.4 °F 63% 29.81 in 3.0 mi West 8.1 mph - 0.00 in Snow Light Snow
3:36 PM 19.4 °F 7.2 °F 12.2 °F 74% 29.81 in 1.8 mi WNW 11.5 mph 21.9 mph 0.00 in Snow Light Snow
3:43 PM 21.2 °F 11.7 °F 12.2 °F 68% 29.81 in 3.0 mi WNW 8.1 mph - 0.00 in Snow Light Snow
3:53 PM 21.9 °F 10.4 °F 10.0 °F 60% 29.88 in 10.0 mi West 11.5 mph - 0.00 in   Overcast
4:53 PM 19.9 °F 9.3 °F 12.9 °F 74% 29.88 in 2.5 mi West 9.2 mph - 0.00 in Snow Light Snow
5:53 PM 19.9 °F 8.6 °F 12.9 °F 74% 29.89 in 8.0 mi West 10.4 mph - 0.00 in Snow Light Snow
6:53 PM 19.9 °F 7.9 °F 8.1 °F 60% 29.91 in 10.0 mi West 11.5 mph - 0.00 in   Scattered Clouds
7:53 PM 19.0 °F 7.5 °F 7.0 °F 59% 29.92 in 10.0 mi West 10.4 mph - N/A   Partly Cloudy
8:53 PM 18.0 °F 6.9 °F 7.0 °F 62% 29.92 in 10.0 mi West 9.2 mph - N/A   Overcast
9:53 PM 16.0 °F 5.3 °F 6.1 °F 65% 29.91 in 10.0 mi West 8.1 mph - N/A   Partly Cloudy
10:53 PM 15.1 °F 6.4 °F 9.0 °F 77% 29.90 in 10.0 mi WSW 5.8 mph - N/A   Mostly Cloudy
11:53 PM 14.0 °F 5.1 °F 10.0 °F 84% 29.88 in 10.0 mi WSW 5.8 mph - N/A   Mostly Cloudy